Regional Weather Roundup
Issued by NWS Cleveland, OH

Home | Current Version | Previous Version | Text Only | Print | Product List | Glossary Off
Versions: 1 2 3 4 5 6 7 8 9 10 11 12 13 14 15 16 17 18 19 20 21 22 23 24 25 26 27 28 29 30 31 32 33 34 35 36 37 38 39 40 41 42 43 44 45 46 47 48 49 50

000
ASUS41 KCLE 210510
RWRCLE
OHIO REGIONAL WEATHER ROUNDUP
NATIONAL WEATHER SERVICE CLEVELAND, OH
100 AM EDT MON APR 21 2014

NOTE: "FAIR" INDICATES FEW OR NO CLOUDS BELOW 12,000 FEET WITH NO
SIGNIFICANT WEATHER AND/OR OBSTRUCTIONS TO VISIBILITY.

OHZ001>008-015>018-024>027-034-035-043-044-210600-
   NORTHWEST OHIO

CITY           SKY/WX    TMP DP  RH WIND       PRES   REMARKS
DEFIANCE       CLEAR     50  36  58 CALM      30.09F
FINDLAY        CLEAR     52  39  61 CALM      30.09F
TOLEDO EXPRESS CLEAR     49  40  71 CALM      30.09F
TOLEDO EXEC    PTCLDY    51  37  58 SE5       30.10F
LIMA           CLEAR     55  35  47 S7        30.10F
$$

OHZ009>014-019>023-028>033-038-089-210600-
   NORTHEAST OHIO

CITY           SKY/WX    TMP DP  RH WIND       PRES   REMARKS
CLE-HOPKINS    PTCLDY    53  35  50 S6        30.13F
CLE-LAKEFRONT  PTCLDY    47  44  90 CALM      30.09F
CUY CO. ARPT   NOT AVBL
LORAIN-ELYRIA  CLEAR     54  37  52 S5        30.11F
ASHTABULA      PTCLDY    57  24  28 S6        30.13F
AKRON-CANTON   PTCLDY    55  25  31 CALM      30.13F
WOOSTER        PTCLDY    45  38  76 CALM      30.12F
MANSFIELD      CLEAR     54  40  59 SE5       30.12F
YOUNGSTOWN     PTCLDY    57  24  28 SE9       30.13F
$$

OHZ042-051>053-060>062-070>072-077>081-210600-
  SOUTHWEST OHIO

CITY           SKY/WX    TMP DP  RH WIND       PRES   REMARKS
CINC-COVINGTON PTCLDY    55  43  63 S3        30.10F
CINC-LUNKEN    CLEAR     49  46  90 CALM      30.11F
HAMILTON       CLEAR     50  43  77 CALM      30.10F
DAYTON         PTCLDY    61  34  36 CALM      30.10F
WRIGHT-PAT AFB CLEAR     54  43  66 CALM      30.10F
DAYTON GENERAL CLEAR     57  40  52 E3        30.09F
WILMINGTON     CLEAR     54  40  59 SE3       30.10F
$$

OHZ036-037-039>041-045>050-054>059-063>069-073>076-082>088-210600-
  CENTRAL AND SOUTHEAST OHIO

CITY           SKY/WX    TMP DP  RH WIND       PRES   REMARKS
COLUMBUS       CLEAR     57  40  52 CALM      30.11S
OSU AIRPORT    CLEAR     57  39  51 CALM      30.11S
BOLTON FIELD   CLEAR     51  42  72 CALM      30.11S
RICKENBACK AFB CLEAR     56  41  58 CALM      30.10S
NEWARK         CLEAR     45  40  82 CALM      30.11F
MARION         CLEAR     48  41  76 CALM      30.11F
LANCASTER      CLEAR     46  41  82 CALM      30.11F
ZANESVILLE     CLEAR     51  31  46 CALM      30.11F
NEW PHILLY     PTCLDY    47  35  63 CALM      30.13F
$$



USA.gov is the U.S. government's official web portal to all federal, state and local government web resources and services.